Location: Aula-Vintri
(58.3875°N, 22.4322°E)
Time: 08:57:41
(UTC+00:00)

Cosmos 2227 Rocket - Pass Details

Date: 13 October 2019
Orbit: 838 x 846 km, 71.0° (Epoch: 17 November)

Event Time Altitude Azimuth Distance (km) Brightness Sun altitude
Rises 21:36:29 0° 321° (NW) 3,421 6.1 -38.9°
Reaches altitude 10° 21:38:58 10° 324° (NW) 2,483 5.2 -39.0°
Enters shadow 21:41:18 25° 330° (NNW) 1,642 4.1 -39.1°
